Dewpoint
18 18 18 18 18 18 18 19 19 18 18 18 18 19 19 20 20 20 22 22 20 19 19 19 19 20 21 25 28 30 31 31 32 32 33 32 32 32 32 32 32 32 32 33 33 33 33 33 33 33 33 33 33 34 34 35 35 36 36 37 37 38 38 39 39 40 40 40 39 39 39 38 38 38 38 38 38 38 38 38 38 38 38 38 38 39
18 19 19 19 19 19 19 19 19 18 18 18 18 19 20 19 19 19 19 20 20 20 19 19 19 19 19 23 27 30 31 32 32 32 32 32 31 31 31 32 32 32 32 32 32 33 33 33 33 33 33 33 33 33 34 34 35 35 36 36 37 38 38 38 38 38 38 38 38 38 37 37 37 37 37 37 37 38 38 38 38 38 38 38 38 39
19 19 19 19 19 19 19 19 19 19 19 19 19 20 20 19 19 19 19 20 20 20 20 20 20 20 20 23 27 30 31 32 32 31 31 31 31 31 31 32 32 32 32 32 32 32 32 32 33 33 33 33 33 33 34 34 34 35 35 36 37 37 37 37 37 37 37 37 37 37 36 36 36 36 37 37 37 38 38 38 38 38 38 38 39 39
20 20 20 20 20 20 19 19 19 19 20 20 20 20 20 20 19 20 20 20 20 20 21 21 21 21 22 24 27 30 31 31 31 30 30 30 30 31 31 31 31 31 31 31 32 32 32 32 32 33 33 33 33 33 34 34 34 35 35 36 36 36 36 36 35 35 35 36 36 36 36 36 36 36 37 37 38 38 38 38 38 38 38 38 38 39
20 20 21 20 20 20 20 20 20 20 21 21 21 20 20 20 20 20 21 21 21 22 22 22 23 23 24 24 26 29 30 30 29 29 29 30 30 30 30 31 31 31 31 31 31 32 32 32 32 33 33 33 33 33 34 34 34 34 34 35 35 35 34 34 34 35 35 35 35 35 36 36 36 36 37 37 37 38 38 38 38 38 38 38 38 39
21 21 21 21 20 20 20 20 21 21 21 21 20 20 20 20 21 22 23 23 23 23 23 23 24 24 24 24 25 27 29 28 28 29 29 29 29 29 29 30 30 30 30 31 31 31 32 32 32 33 33 33 33 33 33 33 33 33 33 33 33 33 33 34 34 34 34 34 34 35 35 35 35 36 36 36 36 37 37 37 37 37 38 38 38 39
22 22 22 21 21 21 21 20 21 21 20 20 20 21 21 22 23 24 24 24 23 23 23 23 23 22 21 22 24 25 26 26 27 27 28 28 28 29 29 29 29 30 30 30 31 31 32 32 32 32 33 33 33 33 33 33 33 33 33 33 33 33 33 33 33 33 33 33 34 34 34 34 35 35 35 35 36 36 36 37 37 38 38 38 38 39
22 22 22 21 21 20 20 20 20 21 21 21 21 22 23 24 24 23 22 22 21 21 20 20 19 18 18 18 20 22 22 22 22 23 24 25 26 27 28 29 29 29 30 30 31 31 31 32 32 32 32 32 33 33 33 32 32 32 32 32 32 32 33 33 33 33 33 33 33 33 33 34 34 34 34 35 35 36 36 37 37 38 38 38 39 39
22 22 21 20 20 20 20 20 20 21 21 22 23 24 24 24 22 20 19 18 18 17 17 16 16 16 16 17 18 19 20 20 20 20 21 21 23 24 27 28 29 29 30 30 30 31 31 31 32 32 32 32 32 32 32 32 32 31 31 31 32 32 32 32 32 32 33 33 33 33 33 33 33 34 34 35 35 36 36 37 38 38 38 39 39 40
22 21 20 20 20 20 20 20 21 22 23 24 25 25 25 22 19 16 15 15 15 16 16 16 16 16 16 16 16 17 19 20 22 24 24 24 24 26 27 27 28 28 29 30 30 30 31 31 31 31 31 31 31 31 31 31 31 31 31 31 31 31 31 32 32 32 32 33 33 33 33 33 34 34 35 35 36 36 36 37 37 38 38 39 40 40
21 21 20 20 20 21 21 21 22 24 26 25 24 22 20 17 15 15 15 15 15 15 16 16 16 16 16 16 16 17 18 19 20 22 25 25 26 27 27 27 27 28 29 29 29 30 30 30 30 30 30 30 30 30 30 30 30 30 30 30 30 31 31 31 32 32 32 33 33 33 33 34 34 34 35 35 36 36 36 36 37 37 38 38 39 40
21 20 20 20 20 21 22 24 25 26 25 22 19 17 15 15 15 15 15 15 15 15 15 16 16 16 16 16 17 18 18 18 18 19 20 22 23 24 24 24 25 26 27 28 28 29 29 29 29 29 29 29 29 29 29 29 29 29 29 30 30 30 31 31 31 32 32 32 33 33 33 34 34 34 35 35 35 35 36 36 36 37 38 38 39 39
21 20 20 20 21 22 24 25 25 23 20 17 15 15 15 16 16 16 16 15 16 16 15 16 16 17 17 18 18 18 18 19 19 19 19 19 20 20 21 21 22 23 23 23 23 24 26 27 27 27 28 27 28 28 28 28 29 29 29 29 30 30 31 31 31 32 32 32 33 33 33 33 34 34 34 35 35 35 35 36 36 36 37 38 38 38
21 20 20 21 23 24 25 24 21 18 16 16 16 16 16 17 17 17 16 16 16 16 16 16 17 17 18 19 19 20 19 19 19 20 20 20 20 20 21 21 21 20 20 20 20 20 24 24 24 24 26 26 26 27 27 28 28 29 29 29 30 30 31 31 31 32 32 32 33 33 33 33 33 34 34 35 35 35 35 35 36 36 37 37 38 38
21 21 22 24 24 24 23 20 18 17 16 16 16 17 17 17 17 17 16 16 16 16 17 17 18 18 19 19 20 20 20 20 20 20 21 21 21 21 21 20 20 20 19 19 19 20 22 22 21 20 22 23 24 25 26 27 28 29 29 30 30 31 31 31 32 32 32 32 32 33 33 33 33 33 34 34 35 35 35 35 36 36 36 37 37 37
23 24 26 25 24 22 20 18 17 17 17 17 17 17 17 17 16 16 16 16 17 18 18 19 19 19 19 20 20 20 20 20 21 21 21 21 21 21 20 20 19 18 18 18 18 19 20 19 19 20 20 22 24 26 27 28 29 29 29 30 30 31 31 31 31 32 32 32 32 33 33 33 33 33 34 34 34 35 35 35 35 36 36 36 36 37
26 26 25 23 21 20 18 18 17 17 17 17 17 17 17 17 17 17 18 18 19 19 20 20 19 19 19 19 20 21 22 22 21 21 20 20 20 20 20 19 18 18 18 18 18 18 18 18 19 19 20 23 25 27 27 28 29 29 30 30 30 31 31 31 31 31 32 32 32 32 33 33 33 33 33 34 34 34 35 35 35 35 35 35 36 36
27 24 22 21 20 19 18 18 18 18 18 18 18 18 18 18 19 19 20 20 20 20 20 20 20 20 20 19 20 21 23 22 21 20 20 19 18 19 19 19 18 18 17 17 18 18 18 18 18 19 21 25 27 27 28 29 29 29 29 30 30 30 30 31 31 31 32 32 32 32 32 33 33 33 33 33 34 34 34 34 35 35 35 35 35 36
24 22 21 20 19 19 18 18 18 18 18 18 18 19 19 20 20 20 20 21 21 21 21 21 21 21 20 20 20 21 22 21 20 20 19 18 18 18 18 18 18 18 17 17 18 18 18 18 20 23 25 26 27 28 28 29 29 29 29 29 30 30 30 31 31 31 31 32 32 32 32 32 33 33 33 33 33 33 34 34 34 34 35 35 35 36
22 21 20 20 20 20 19 19 20 20 20 20 20 20 20 20 21 21 21 22 22 22 23 23 22 22 22 21 21 21 20 20 20 19 18 17 17 17 17 17 17 17 16 17 17 17 18 18 19 21 24 26 27 27 28 28 29 29 29 29 30 30 30 30 31 31 31 31 32 32 32 32 32 32 33 33 33 33 33 34 34 34 35 35 36 36
21 21 20 20 20 20 20 20 20 21 22 23 23 22 21 21 22 22 22 23 23 24 24 24 24 23 22 20 20 20 20 19 19 19 18 17 17 17 17 17 16 16 16 17 17 18 18 18 18 19 22 25 26 27 28 28 29 29 29 29 29 30 30 30 30 31 31 31 31 31 32 32 32 32 32 32 33 33 33 34 34 35 35 35 35 35
22 21 21 21 22 22 23 22 23 24 24 25 24 23 22 23 23 23 23 24 24 24 24 24 23 22 20 20 19 19 20 19 19 18 18 17 16 16 16 17 17 17 16 17 17 17 17 18 18 19 23 25 26 27 27 28 28 29 29 29 29 29 30 30 30 30 31 31 31 31 31 31 32 32 32 32 33 33 33 33 34 34 34 34 35 35
24 23 23 23 23 24 24 24 24 24 25 25 24 24 24 24 24 24 24 25 25 24 23 22 21 21 20 20 19 19 19 19 19 18 17 16 16 16 16 17 17 17 16 16 16 17 17 17 17 19 22 25 26 27 27 28 28 28 29 29 29 29 30 30 30 30 30 31 31 31 31 31 31 32 32 32 32 32 33 33 33 33 33 34 34 34
24 23 23 24 24 25 25 24 25 25 26 26 27 27 28 28 29 29 28 26 24 23 21 21 20 20 20 20 19 18 18 18 18 18 17 16 16 16 16 17 17 16 16 16 16 16 17 17 17 18 20 23 25 26 27 27 28 28 29 29 29 29 29 29 30 30 30 30 30 31 31 31 31 31 31 31 32 32 32 32 33 33 33 33 33 34
24 24 25 25 27 28 29 29 29 30 31 31 31 30 29 28 26 24 23 22 21 21 20 20 20 19 18 19 18 17 16 17 17 17 17 16 16 16 16 16 16 16 16 16 16 17 16 17 17 18 19 21 24 26 26 27 27 28 28 28 29 29 29 29 29 29 30 30 30 30 31 31 31 31 31 31 31 31 32 32 32 33 33 33 33 33
27 27 28 29 30 31 31 32 33 33 32 29 27 24 23 23 23 23 22 22 21 20 20 19 18 17 17 17 16 16 16 16 17 17 17 17 16 16 17 16 16 15 15 16 17 18 17 17 17 17 18 20 22 24 26 26 27 27 27 28 28 28 29 29 29 29 29 29 30 30 30 30 31 31 31 31 31 31 32 32 32 32 33 33 33 33
29 30 31 31 31 31 31 30 29 29 29 28 26 25 24 23 23 22 21 20 20 20 19 18 17 16 16 16 16 16 17 17 17 17 18 17 16 16 16 16 16 15 15 16 17 19 19 18 18 18 18 18 20 22 25 25 26 26 27 27 27 28 28 28 29 29 29 29 29 30 30 30 30 31 31 31 31 31 31 32 32 32 32 32 32 32
29 30 30 29 29 29 28 28 28 27 27 27 27 26 25 23 22 21 20 20 20 19 18 17 16 16 16 15 16 16 17 17 17 17 17 17 16 16 16 16 16 16 16 16 18 19 20 20 19 19 18 18 19 20 22 24 25 25 26 26 27 27 27 28 28 28 29 29 29 29 29 30 30 30 30 31 31 31 31 31 32 32 32 31 30 30
28 28 27 27 26 26 25 25 25 25 25 26 26 26 24 23 22 21 20 20 20 19 18 18 17 17 16 16 16 17 16 17 17 17 17 16 16 16 16 16 16 17 17 17 18 18 18 18 18 18 17 18 18 19 20 22 23 24 24 25 26 26 27 27 27 28 28 29 29 29 29 29 30 30 30 30 30 31 31 31 31 30 30 29 29 29
24 23 22 23 23 22 22 22 23 24 25 25 25 25 24 22 21 20 20 20 20 19 19 18 18 18 18 17 16 16 15 15 16 17 18 17 17 17 17 17 17 18 18 18 17 16 15 16 16 17 16 18 18 18 19 20 20 21 22 23 24 25 26 26 27 27 28 28 28 29 29 29 29 29 30 30 30 30 30 30 30 29 28 29 29 29
19 19 19 19 19 19 20 20 21 22 24 24 24 24 23 22 21 21 20 20 20 20 20 19 19 19 19 18 16 15 14 15 17 18 19 18 18 18 18 18 18 19 19 18 17 15 14 14 15 16 17 18 18 19 19 19 20 20 20 20 21 23 25 25 26 26 27 27 28 28 28 29 29 29 29 29 29 30 30 30 30 29 28 28 28 29
18 18 18 18 18 18 19 19 20 20 20 21 22 22 22 22 22 21 21 21 21 21 20 20 20 19 19 18 17 16 15 16 18 19 20 19 19 19 19 19 19 19 19 19 18 17 15 15 15 16 17 17 18 18 19 20 20 20 20 20 20 21 24 24 25 25 25 26 27 27 28 28 28 28 29 29 29 29 30 30 30 29 28 28 28 28
19 18 18 18 18 18 18 19 19 19 20 20 20 20 21 21 22 22 22 22 22 21 21 20 20 19 19 18 18 17 17 17 18 20 21 20 20 19 19 19 19 19 19 19 19 18 17 16 16 16 17 17 17 18 19 20 20 20 20 20 20 20 22 23 23 23 24 24 25 26 27 27 27 28 28 29 29 29 29 30 30 29 29 28 28 28
19 19 19 19 18 18 18 19 19 19 19 20 20 20 20 21 21 21 21 21 21 21 21 20 20 20 19 18 18 17 17 17 19 20 21 21 20 20 19 19 19 19 18 18 18 17 17 17 16 16 16 17 17 18 18 19 20 20 20 20 19 19 20 21 21 21 22 23 23 23 24 25 26 27 27 28 29 29 29 29 30 30 29 29 29 29
18 19 19 18 18 18 19 19 19 19 19 19 20 20 20 20 20 20 21 21 21 21 21 21 21 20 20 19 19 18 17 17 19 21 22 22 21 20 20 19 19 18 18 18 17 17 16 16 17 17 16 16 17 17 17 18 18 19 19 20 20 19 20 20 20 21 21 21 21 21 22 22 24 24 25 27 28 28 29 29 30 30 30 30 30 29
18 18 19 18 18 19 18 19 19 19 19 18 18 19 19 19 20 20 20 21 21 21 22 22 22 21 21 21 20 20 19 19 20 21 23 22 22 21 20 19 19 19 19 18 18 17 17 17 17 17 17 16 16 16 16 17 18 18 19 19 20 20 20 20 20 20 20 20 21 21 21 22 22 23 24 26 28 29 29 29 29 30 30 30 30 30
18 18 18 18 18 18 18 18 18 18 18 18 18 18 19 19 19 20 20 21 21 22 22 22 22 22 23 22 21 21 20 20 20 21 22 22 22 21 20 20 20 20 20 19 19 18 18 17 17 17 17 16 15 15 16 17 17 18 18 19 19 20 20 20 21 21 20 21 21 21 22 22 23 24 25 27 28 28 29 29 29 29 30 30 30 30
18 18 18 18 18 18 18 18 18 18 18 18 18 19 19 19 19 20 20 20 21 21 21 21 20 21 22 23 23 22 22 21 21 22 23 23 23 22 22 21 21 21 20 20 20 20 19 18 17 16 15 15 16 17 17 17 17 18 18 19 19 20 20 20 21 21 21 21 22 23 24 24 24 24 24 25 25 25 25 26 27 28 29 29 29 30
18 18 18 18 18 18 17 17 17 18 18 18 19 19 20 20 20 20 20 20 20 20 20 20 20 20 21 23 23 24 24 23 24 24 24 24 24 23 22 21 21 21 21 21 21 20 20 19 17 16 16 16 16 17 17 17 17 18 18 19 19 20 20 20 21 21 21 22 22 23 23 23 23 23 23 23 24 24 24 24 25 26 27 27 27 28
18 18 18 18 18 18 17 18 18 18 18 19 20 20 20 20 20 19 19 19 20 20 20 20 20 20 21 22 22 23 23 24 24 24 24 23 23 23 22 21 21 21 21 21 21 21 20 20 19 18 18 17 17 17 17 18 18 18 19 19 19 19 20 20 20 21 21 21 22 22 22 22 22 23 23 23 23 24 24 24 24 25 26 25 25 25
18 18 17 18 18 18 18 18 19 19 19 20 20 20 19 19 19 18 18 19 20 20 20 20 20 20 20 21 21 21 21 22 23 23 23 22 22 22 22 21 21 21 21 21 21 21 20 20 20 19 19 18 18 18 19 18 19 20 21 20 19 19 20 21 21 21 21 21 22 22 22 23 23 23 23 24 24 24 24 24 24 24 25 25 25 24
18 18 17 17 17 17 17 18 19 20 20 20 19 19 18 18 18 18 18 19 19 19 20 20 20 20 20 19 20 20 20 21 21 22 22 22 22 22 22 21 21 21 20 20 20 20 20 20 20 20 19 19 19 19 18 19 19 20 20 20 20 20 21 21 21 21 21 21 21 22 23 23 23 23 23 24 24 24 25 25 25 26 26 25 25 25
18 18 17 18 18 18 19 20 20 20 20 19 18 18 18 19 19 19 19 19 19 19 20 20 19 19 19 18 18 19 19 20 20 21 21 21 21 20 21 21 21 21 20 20 20 20 20 20 20 20 20 20 20 20 19 19 19 20 20 20 20 20 19 19 19 20 20 21 21 22 22 22 22 23 23 24 24 24 25 26 26 27 27 26 26 26
18 18 18 19 19 19 20 20 19 19 18 18 18 18 19 19 19 20 20 19 19 19 19 19 19 19 19 18 18 18 18 19 19 19 20 22 22 22 22 22 21 21 21 21 20 20 20 20 20 20 20 20 20 20 19 19 19 19 19 20 20 20 20 20 20 20 21 22 22 22 23 23 23 23 23 24 24 24 24 24 24 25 26 26 26 26
18 18 19 19 19 19 19 18 18 18 18 18 18 18 18 19 19 20 19 19 19 19 19 19 19 19 18 17 17 17 17 18 18 19 19 21 23 24 24 23 22 21 21 21 21 21 20 20 20 20 20 20 20 20 20 20 20 20 20 21 21 21 21 21 21 21 21 22 22 22 23 23 23 23 23 23 23 23 24 24 24 25 25 26 26 26
19 19 19 19 18 18 19 18 18 18 18 18 18 18 19 19 19 19 19 19 19 19 19 20 19 19 18 17 17 17 17 17 18 18 18 19 20 21 22 22 22 22 21 21 22 22 21 21 21 21 21 21 20 20 20 20 20 20 20 21 21 21 21 21 21 21 21 21 21 22 23 23 23 23 23 23 23 23 24 24 25 25 26 26 27 27
19 18 18 18 18 18 18 18 18 18 18 18 18 18 18 19 19 19 19 19 19 19 20 19 19 18 18 17 17 17 17 17 17 18 18 19 19 20 20 21 22 22 22 22 22 22 22 23 23 23 22 21 20 20 20 20 20 20 20 20 20 20 20 20 20 21 21 21 22 22 23 24 23 23 23 23 23 24 24 25 25 26 27 27 27 27
19 18 18 17 17 17 17 17 17 17 17 17 17 18 18 19 19 19 19 19 19 19 19 19 18 18 17 17 17 17 18 18 18 18 18 19 19 20 20 20 21 22 22 23 23 23 23 24 24 24 23 22 21 20 20 20 20 20 20 20 20 20 20 20 21 21 22 22 23 24 24 24 24 24 24 24 24 24 24 25 25 26 26 27 27 27
18 17 17 17 17 17 17 17 17 17 17 17 17 18 18 19 20 20 19 19 19 18 18 18 18 17 17 17 17 18 18 18 18 18 18 19 19 20 20 20 21 21 21 22 22 22 22 24 24 24 24 23 22 21 20 20 20 21 21 21 21 21 20 21 21 22 22 23 24 25 25 25 24 24 25 24 24 24 24 24 24 25 25 26 26 26
18 17 17 17 17 17 17 17 17 17 17 17 17 17 18 18 18 18 18 18 18 18 18 18 18 17 17 17 17 18 18 18 18 18 18 19 19 20 20 20 20 20 20 20 20 20 20 21 22 24 25 25 24 24 22 22 21 21 21 21 21 21 21 21 22 22 23 23 24 26 26 26 26 26 26 26 25 24 24 24 24 24 24 24 25 25
17 17 17 17 17 17 17 17 17 17 17 17 18 18 18 17 18 18 18 18 18 18 18 18 18 18 17 18 18 18 19 18 18 18 19 19 20 20 20 20 20 20 20 20 19 19 19 18 19 20 22 24 25 25 24 23 23 22 22 22 22 22 22 22 23 23 24 24 25 26 27 27 27 26 26 25 25 24 23 23 23 23 24 24 24 25